This is the latest recevied weather packets stored in our database for station/object WI0K. If no packets are shown the sender has not sent any weather packets the latest 10 day(s).
| Time | Temp. | Humidity | Pressure | Rain* | Wind** | Luminosity | Snow |
|---|---|---|---|---|---|---|---|
| 1788095795 | 16.67° C | 70% | 1019.5 hPa | 0 mm | - | 55 W/m² | - |
| 1788095494 | 16.67° C | 69% | 1019.5 hPa | 0 mm | - | 45 W/m² | - |
| 1788095193 | 16.67° C | 68% | 1019.5 hPa | 0 mm | - | 36 W/m² | - |
| 1788094893 | 16.11° C | 70% | 1019.6 hPa | 0 mm | - | 36 W/m² | - |
| 1788094592 | 16.67° C | 69% | 1019.5 hPa | 0 mm | - | 28 W/m² | - |
| 1788094291 | 16.67° C | 68% | 1019.4 hPa | 0 mm | - | 21 W/m² | - |
| 1788093990 | 16.67° C | 70% | 1019.2 hPa | 0 mm | - | 15 W/m² | - |
| 1788093690 | 17.22° C | 66% | 1019.1 hPa | 0 mm | - | 8 W/m² | - |
| 1788093389 | 17.22° C | 65% | 1019 hPa | 0 mm | - | 6 W/m² | - |
| 1788093088 | 17.22° C | 63% | 1018.9 hPa | 0 mm | - | 4 W/m² | - |
| 1788092787 | 17.22° C | 65% | 1018.9 hPa | 0 mm | - | 2 W/m² | - |
| 1788092487 | 17.22° C | 65% | 1018.6 hPa | 0 mm | - | 1 W/m² | - |
| 1788092186 | 17.78° C | 64% | 1018.6 hPa | 0 mm | - | 1 W/m² | - |
| 1788091885 | 17.78° C | 63% | 1018.6 hPa | 0 mm | - | 0 W/m² | - |
| 1788091584 | 17.78° C | 63% | 1018.6 hPa | 0 mm | - | 0 W/m² | - |
| 1788091283 | 17.78° C | 62% | 1018.6 hPa | 0 mm | - | 0 W/m² | - |
| 1788090983 | 17.78° C | 61% | 1018.5 hPa | 0 mm | - | 0 W/m² | - |
| 1788090682 | 17.22° C | 64% | 1018.4 hPa | 0 mm | - | 0 W/m² | - |
| 1788090381 | 17.78° C | 65% | 1018.5 hPa | 0 mm | - | 0 W/m² | - |
| 1788090081 | 17.78° C | 65% | 1018.5 hPa | 0 mm | - | 0 W/m² | - |
| 1788089780 | 17.78° C | 64% | 1018.6 hPa | 0 mm | - | 0 W/m² | - |
| 1788089479 | 17.78° C | 64% | 1018.6 hPa | 0 mm | - | 0 W/m² | - |
| 1788089178 | 17.78° C | 65% | 1018.6 hPa | 0 mm | - | 0 W/m² | - |
| 1788088878 | 17.22° C | 66% | 1018.8 hPa | 0 mm | - | 0 W/m² | - |
| 1788088577 | 17.78° C | 66% | 1018.8 hPa | 0 mm | - | 0 W/m² | - |
* Rain latest hour (hover to see other rain measurements)
** Current wind speed in m/s (hover to see current wind gust speed)